#timestamp,LO_Frequency,Hit,StdDev 
1561662015.5,286046997.4,Y
1561662035.3,286046995.3,P
1561662055.2,286046995.9,N
1561662075.9,286046991.9,P
1561662095.7,286046991.9,N
1561662115.6,286046994.7,N
1561662135.4,286046993.7,N
1561662155.2,286046996.1,N
1561662175.1,286046995.6,N
1561662176.0,286046995.6,N
1561662195.8,286046997.0,N
1561662215.7,286046998.8,N
1561662235.5,286047002.1,N
1561662255.3,286047000.3,N
1561662275.2,286047000.0,N
1561662295.0,286047002.4,N
1561662295.9,286047002.4,N
1561662315.8,286047002.8,N
1561662335.6,286046998.1,N
1561662355.4,286046998.3,N
1561662375.3,286047001.1,N
1561662395.1,286046999.3,N
1561662396.0,286046999.3,N
1561662415.8,286046997.0,N
1561662435.7,286046996.9,N
1561662455.5,286046996.7,N
1561662475.3,286046998.0,N
1561662495.2,286046996.1,N
1561662515.0,286046994.2,N
1561662515.9,286046994.2,N
1561662535.8,286046993.3,N
1561662555.6,286046991.9,N
1561662575.4,286046992.1,N
1561662595.3,286046992.2,N
1561662615.1,286046992.4,N
1561662635.8,286046993.1,N
1561662655.7,286046992.7,N
1561662675.5,286046992.3,N
1561662695.4,286046994.3,N
1561662745.2,286046990.6,E
1561662755.1,286046996.4,N
1561662775.9,286046999.4,P
1561662795.7,286046999.1,N
1561662815.6,286046999.3,N
1561662835.4,286046998.8,N
1561662855.2,286046996.8,N
1561662875.1,286046997.3,N
1561662876.0,286046997.3,N
1561662895.8,286046996.6,N
1561662915.7,286046995.0,Y
1561662935.5,286046999.6,P
1561662955.3,286046995.0,P
1561662975.2,286046996.0,N
1561662995.9,286046994.0,Y
1561663015.7,286046995.4,P
1561663035.6,286046995.1,P
1561663055.4,286046993.3,P
1561663075.3,286046996.0,N
1561663095.1,286046996.4,N
1561663096.0,286046996.4,Y
1561663115.8,286046999.9,P
1561663135.7,286047002.8,N
1561663155.5,286046999.8,N
1561663175.3,286046998.3,N
1561663195.2,286046996.5,N
1561663215.0,286046997.3,N
1561663215.9,286046997.3,N
1561663235.8,286046995.5,N
1561663255.6,286046995.0,N
1561663275.4,286046995.3,N
1561663295.3,286046994.9,N
1561663315.1,286046997.7,N
1561663335.9,286046999.1,N
1561663355.7,286046999.2,N
1561663375.5,286046998.5,N
1561663395.4,286046998.1,N
1561663415.2,286047000.9,N
1561663435.0,286046999.8,N
1561663435.9,286046999.8,N
1561663455.8,286047002.7,N
1561663475.6,286047004.2,N
1561663495.4,286047003.2,N
1561663515.3,286047003.7,N
1561663535.1,286047005.2,N
1561663555.9,286047005.7,N
1561663575.7,286047003.2,N
1561663595.5,286047003.2,N
1561663615.4,286047005.5,N
1561663635.2,286047007.2,N
1561663655.0,286047004.7,N
1561663655.9,286047004.7,N
1561663675.8,286047005.3,N
1561663695.6,286047005.9,N
1561663715.5,286047006.2,N
1561663735.3,286047006.2,N
1561663755.1,286047006.6,N
1561663775.9,286047006.9,N
1561663795.7,286047006.2,N
1561663815.5,286047006.6,N
1561663835.4,286047007.0,N
1561663855.2,286047008.8,N
1561663875.1,286047006.9,N
1561663876.0,286047006.9,N
1561663895.8,286047005.0,N
1561663915.6,286047004.9,N
1561663935.5,286047006.9,N
1561663955.3,286047007.0,Y
1561663975.1,286046999.7,P
1561663995.9,286047000.2,N
1561664015.7,286047001.0,N
1561664035.6,286047001.0,N
1561664055.4,286046998.1,N
1561664075.2,286046999.3,N
1561664095.1,286046999.2,N
1561664096.0,286046999.2,N
1561664115.8,286046996.8,N
1561664135.6,286046997.8,N
1561664155.5,286046997.6,N
1561664175.3,286046994.9,N
1561664195.2,286046995.3,N
1561664215.9,286046995.7,N
1561664235.7,286046995.4,N
1561664255.6,286046997.0,N
1561664275.4,286046996.5,N
1561664295.3,286046997.6,N
1561664315.1,286046997.9,N
1561664316.0,286046997.9,N
1561664335.8,286046997.3,N
1561664355.7,286046997.2,N
1561664375.5,286046999.1,N
1561664395.3,286046996.7,N
1561664415.2,286046996.6,N
1561664435.0,286046996.5,N
1561664435.9,286046996.5,N
1561664455.8,286046997.3,N
1561664475.6,286046995.0,N
1561664495.4,286046995.4,N
1561664515.3,286046995.3,N
1561664535.1,286046995.3,N
1561664555.9,286046996.0,N
1561664575.7,286046993.7,Y
1561664595.5,286046995.3,P
1561664615.4,286046997.9,N
1561664635.2,286046997.5,N
1561664655.0,286046995.0,Y
1561664655.9,286046995.0,P
1561664675.8,286046999.8,N
1561664695.6,286047002.2,N
1561664715.5,286047003.8,N
1561664735.3,286047006.0,N
1561664755.1,286047005.9,N
1561664775.9,286047005.8,N
1561664795.7,286047006.3,N
1561664815.5,286047009.4,N
1561664835.4,286047013.7,Y
1561664855.2,286047010.9,P
1561664875.1,286047012.5,P
1561664876.0,286047012.5,P
1561664895.8,286047016.6,Y
1561664915.6,286047010.5,P
1561664935.5,286047011.4,P
1561664955.3,286047015.4,P
1561664975.2,286047015.8,Y
1561664995.0,286047005.5,P
1561664995.9,286047005.5,N
1561665015.7,286047007.3,N
1561665035.6,286047007.3,N
1561665055.4,286047006.8,N
1561665075.3,286047008.5,Y
1561665095.1,286047002.2,P
1561665115.8,286047003.2,N
1561665135.7,286047005.9,N
1561665155.5,286047007.5,Y
1561665175.4,286047001.9,P
1561665195.2,286047009.0,P
1561665215.0,286047009.3,P
1561665215.9,286047009.3,N
1561665235.8,286047013.9,Y
1561665255.6,286047010.4,P
1561665275.5,286047011.2,P
1561665295.3,286047014.9,P
1561665315.1,286047015.9,Y
1561665335.9,286047008.1,P
1561665355.7,286047011.3,P
1561665375.6,286047017.2,P
1561665395.4,286047018.4,Y
1561665415.2,286047008.5,P
1561665435.1,286047006.9,P
1561665436.0,286047006.9,P
1561665455.8,286047006.1,N
1561665475.6,286047009.6,Y
1561665495.5,286047004.5,P
1561665515.3,286047007.9,P
1561665535.2,286047011.9,P
1561665555.9,286047013.3,Y
1561665575.7,286047006.1,P
1561665595.6,286047012.2,P
